Theta_e
293 293 293 293 293 293 293 294 294 295 296 297 298 300 301 303 303 300 295 298 293 287 288 289 289 287 287 287 283 284 284 283 282 280 279 279 278 280 279 280 279 279 279 280 282 278 276 293 293 287 289 291 291 291
292 292 293 293 293 293 293 293 294 294 294 296 297 298 297 302 301 302 291 297 298 289 288 293 292 293 292 292 289 286 286 284 286 282 283 283 279 281 280 275 284 277 281 280 282 283 293 294 294 297 293 290 290 290
292 292 292 292 292 292 293 293 293 294 294 295 296 297 298 298 301 301 292 294 293 285 286 286 286 291 293 293 295 286 287 288 286 290 286 283 278 282 277 278 281 284 287 283 283 286 288 290 293 293 294 294 295 295
293 292 292 292 292 292 292 292 293 293 293 294 294 296 297 296 300 301 290 294 292 287 282 283 290 289 293 293 292 292 289 290 289 289 284 282 279 285 279 281 280 283 284 282 282 285 287 290 292 291 292 293 292 293
293 292 292 292 292 292 292 292 292 292 293 293 294 295 296 295 298 299 292 293 295 288 281 282 284 289 290 291 290 290 289 288 286 282 281 279 283 282 282 282 279 283 281 279 279 286 286 287 289 290 289 290 291 290
292 292 292 292 292 292 292 292 292 292 292 293 293 295 296 295 298 295 283 291 295 292 282 277 284 284 286 287 287 287 287 286 286 282 280 283 285 281 277 276 282 284 286 286 283 288 289 288 289 290 289 290 290 287
291 292 292 292 292 292 292 292 291 292 292 292 293 294 296 293 296 287 284 289 296 292 283 276 277 280 286 286 286 285 286 285 284 281 281 281 281 282 278 273 281 284 285 286 287 287 285 287 286 289 289 288 286 283
289 290 291 291 291 291 291 291 292 292 292 293 293 295 295 293 297 287 290 296 295 287 284 277 274 277 283 280 279 284 281 282 281 281 282 279 281 281 274 279 281 283 284 284 285 286 286 288 284 283 284 282 281 282
289 289 290 290 291 291 291 291 292 293 292 293 294 294 290 291 284 285 295 297 290 285 277 277 274 273 281 280 282 281 282 276 282 278 278 280 277 274 278 280 281 275 274 271 271 273 276 276 278 280 280 280 279 281
290 290 291 291 291 292 292 292 292 292 292 293 290 285 280 284 293 293 286 282 282 280 280 277 280 273 280 279 278 279 280 276 274 277 281 277 275 280 269 268 267 266 266 266 266 271 267 268 270 274 276 275 274 275
290 291 291 290 291 291 291 293 293 293 293 286 281 281 286 294 286 282 277 276 276 274 278 277 280 274 280 276 276 279 276 277 271 276 275 275 274 273 263 263 264 264 263 264 264 265 266 266 266 267 269 270 269 269
291 291 290 291 290 291 291 293 293 289 285 285 285 286 285 281 278 274 272 273 273 272 274 276 277 279 278 281 278 276 274 274 269 277 274 270 273 259 258 258 259 260 260 260 262 262 263 263 263 263 265 264 264 264
291 290 291 293 293 294 293 292 292 292 291 287 282 277 277 273 270 269 266 268 269 272 274 276 274 277 278 280 277 275 271 270 274 270 270 272 258 258 255 256 256 258 258 259 260 261 261 260 260 259 259 261 262 261
291 291 291 292 294 293 293 289 290 288 285 278 275 268 271 270 272 270 273 273 268 274 276 278 275 276 277 275 276 270 274 272 269 267 269 262 255 254 254 256 255 254 255 256 257 258 259 259 258 257 258 259 259 258
291 291 290 290 290 289 287 284 281 273 273 270 273 267 264 259 259 258 262 265 261 267 276 275 276 277 275 273 274 273 268 267 270 269 263 257 254 254 254 254 254 254 255 255 256 256 257 257 257 256 257 258 259 259
289 287 286 289 289 288 284 278 271 271 262 261 256 262 260 264 260 260 261 259 261 266 269 274 274 272 272 273 271 269 269 267 269 259 256 255 254 253 253 254 255 255 255 255 256 256 256 256 256 256 256 256 256 257
286 283 286 284 282 281 280 270 266 260 258 257 254 254 255 256 255 254 257 257 260 265 270 272 269 269 270 268 267 266 269 260 256 255 255 254 253 253 253 253 254 255 255 256 256 256 256 257 257 257 255 256 256 256
276 281 283 283 278 274 267 267 262 259 254 255 254 252 253 254 254 254 255 257 260 262 265 268 268 267 267 266 268 258 255 255 255 255 255 254 254 253 254 254 254 255 255 255 255 256 257 257 257 256 257 257 256 255
278 278 280 279 276 269 264 262 263 255 254 255 255 255 254 253 254 254 255 256 257 258 262 263 266 267 264 254 254 252 253 254 254 255 255 253 253 253 253 254 255 254 254 254 254 254 254 254 255 256 256 256 254 255
276 277 277 275 273 266 260 259 263 258 255 254 256 254 253 252 253 253 253 254 255 256 256 256 254 250 252 251 252 252 253 253 254 253 254 254 255 254 253 254 255 255 255 254 254 255 254 253 253 253 253 254 253 252
270 270 271 268 263 261 258 258 257 257 256 254 256 255 252 253 251 251 251 252 253 249 249 248 249 249 249 250 251 251 252 253 254 255 254 253 254 254 254 254 254 255 254 253 253 252 252 251 252 253 252 252 252 252
264 268 262 265 261 259 257 256 257 258 255 254 254 253 251 252 250 249 251 250 248 247 248 249 249 249 249 249 249 250 250 250 252 254 254 254 253 253 252 253 253 251 251 252 252 251 251 252 252 252 252 251 252 251
262 262 257 256 256 255 252 257 255 255 253 252 253 251 249 249 250 253 247 247 247 249 248 248 248 246 248 248 247 248 248 250 252 252 252 252 252 252 252 252 253 252 251 250 252 251 251 251 251 251 252 251 251 251
257 250 248 247 250 248 250 249 253 253 252 251 251 249 248 249 251 249 247 246 248 249 249 247 249 249 249 247 249 248 249 251 251 251 252 251 250 249 250 250 250 250 250 251 251 251 250 250 250 250 249 249 249 248
255 242 246 244 246 247 246 246 247 250 247 247 248 247 247 249 248 247 246 246 247 247 248 249 249 250 249 248 249 249 249 252 251 250 250 252 250 250 250 250 249 248 249 250 250 250 249 248 248 247 247 247 246 246
241 240 242 241 243 244 242 244 243 243 245 245 244 246 247 248 247 248 246 247 247 247 247 248 248 249 249 250 250 250 249 250 252 251 250 252 252 253 251 251 250 249 248 248 248 248 247 247 245 244 245 246 245 244
241 240 242 243 243 244 242 242 243 244 242 243 243 244 246 247 247 246 247 248 248 248 249 249 249 250 250 249 249 249 249 250 250 251 251 250 250 250 251 251 250 250 246 246 245 245 245 244 244 245 244 245 245 245
242 242 240 241 241 241 239 240 240 240 241 243 242 243 243 245 245 246 247 248 247 248 248 249 249 251 250 250 250 249 249 249 249 249 249 249 249 249 248 248 248 250 247 246 246 245 243 243 243 244 244 244 245 246
242 242 243 237 239 241 240 240 240 242 243 242 242 243 243 245 245 245 247 247 247 247 246 246 248 249 249 249 249 249 250 250 250 249 250 252 251 250 249 248 248 247 246 245 246 250 248 246 245 246 246 246 246 246
241 242 241 238 238 240 242 242 242 242 241 243 243 244 245 245 246 247 246 245 245 245 246 246 247 248 249 249 250 249 250 250 250 251 251 252 251 249 248 248 247 246 245 242 243 244 247 247 245 243 244 244 245 245
243 242 242 243 242 244 243 242 242 241 242 242 242 242 244 244 246 247 247 247 246 244 244 244 243 245 246 249 249 250 250 250 250 250 250 249 249 248 247 246 246 244 242 242 242 242 243 243 243 242 242 242 243 244
242 239 241 241 242 242 242 242 243 242 243 242 242 242 243 244 246 249 250 248 245 244 245 245 244 246 247 249 251 251 251 250 249 249 248 248 247 247 246 245 243 242 242 242 243 243 242 241 242 243 243 243 244 244
240 242 241 243 242 242 242 240 243 244 243 243 243 241 241 242 246 249 247 247 247 248 247 247 248 248 248 248 249 250 249 249 248 250 252 251 249 248 246 244 244 243 243 243 244 244 243 243 243 243 243 244 244 245
Wind_Speed
28 30 30 28 29 27 28 29 28 27 31 30 29 29 27 32 33 22 9 15 12 5 9 11 8 10 9 11 10 5 6 2 5 9 7 7 7 10 12 16 13 12 8 8 8 11 16 0 5 7 3 6 9 11
30 29 30 29 28 28 30 29 30 26 29 30 30 27 22 29 30 32 7 12 11 7 2 12 13 15 13 14 9 4 2 4 6 6 5 4 5 4 10 14 15 16 16 13 11 8 1 1 6 5 4 8 13 5
32 30 30 27 28 27 31 26 27 29 28 29 29 28 25 27 33 31 9 12 11 5 3 3 11 11 5 8 8 7 3 5 4 1 2 2 7 3 9 12 17 16 10 9 13 17 18 18 16 12 11 10 12 9
38 34 31 29 29 28 29 26 27 27 28 31 30 30 27 25 27 30 6 11 11 4 6 6 4 12 11 11 10 9 5 3 2 2 4 6 8 6 10 10 10 8 8 7 12 16 16 17 9 7 12 10 11 9
37 37 34 31 29 28 29 28 27 29 28 28 30 30 28 25 25 22 8 11 14 9 6 5 2 13 11 13 13 10 10 9 5 5 6 8 7 7 8 10 16 12 19 14 15 13 14 12 13 10 6 12 13 10
29 34 34 32 31 30 29 30 30 29 26 25 30 31 28 23 31 15 6 11 16 6 5 6 3 7 11 12 15 14 9 6 5 5 6 7 10 6 7 13 24 17 18 20 21 20 17 19 19 16 14 14 9 6
20 27 30 32 28 29 32 33 32 31 30 28 30 32 28 19 16 15 6 8 24 9 5 5 6 2 8 7 5 6 6 3 5 4 7 9 7 7 10 21 27 14 18 18 17 15 18 22 18 17 12 7 4 5
13 15 21 24 29 31 31 30 32 33 30 28 29 28 26 26 30 6 4 24 20 7 4 6 4 6 8 6 5 4 6 3 4 4 4 8 7 8 12 24 19 19 19 21 21 16 20 22 6 7 4 3 8 10
19 20 23 24 28 31 31 30 31 32 31 29 28 23 10 15 5 6 20 29 4 4 7 5 9 6 6 4 5 5 5 5 4 6 8 6 8 11 11 15 13 9 8 13 16 12 11 11 13 14 7 7 10 11
20 22 24 25 23 21 20 22 22 24 28 30 13 7 3 6 28 23 7 6 5 3 2 3 5 7 9 6 5 6 5 5 5 8 4 6 11 17 4 6 6 9 10 11 9 7 11 12 12 14 10 8 7 9
22 19 16 14 15 16 25 27 32 33 30 6 4 2 3 31 6 3 4 4 4 5 3 4 4 10 3 7 5 3 4 3 4 5 6 5 7 3 9 9 9 9 9 9 7 10 10 11 12 12 12 8 8 9
11 9 8 12 6 2 21 19 27 15 3 5 8 9 3 4 4 6 4 4 3 5 3 8 6 6 5 3 4 4 4 3 7 1 4 5 3 6 9 10 11 11 11 11 9 9 10 10 9 10 9 7 8 8
15 16 9 14 18 15 24 23 24 27 24 4 6 6 4 1 6 6 6 4 6 5 5 6 7 5 4 2 4 4 5 6 1 4 5 2 3 6 8 8 10 10 10 9 9 8 7 8 7 7 9 8 6 5
20 21 19 15 25 25 28 20 16 7 5 6 4 5 3 4 4 2 5 7 4 7 9 9 6 4 4 4 4 6 4 2 5 5 6 3 4 6 8 8 7 10 9 10 10 10 8 7 6 7 7 7 5 5
22 27 27 27 28 25 24 23 18 7 6 6 3 5 4 3 4 2 2 5 5 1 6 6 6 3 4 5 5 4 4 6 6 5 3 2 5 6 7 8 8 8 8 8 8 7 7 7 6 6 7 7 7 9
15 19 16 22 22 22 19 18 11 5 8 7 12 5 2 4 4 5 6 5 4 2 3 4 5 4 3 3 6 8 5 7 3 2 2 3 4 5 6 7 7 7 7 6 5 5 5 6 6 6 8 8 9 8
17 6 12 14 19 27 26 9 8 12 7 7 5 5 3 5 6 3 4 4 5 2 4 4 6 5 4 3 4 3 3 3 3 2 2 3 4 6 5 5 5 6 6 5 4 4 5 5 5 7 9 9 9 9
7 10 16 13 6 9 6 8 7 7 10 6 5 4 3 6 4 5 4 5 3 2 1 3 3 4 5 5 4 4 3 2 1 2 2 3 4 4 4 5 5 5 5 5 4 5 6 6 7 7 7 7 8 9
13 13 22 19 10 7 7 8 6 7 7 3 4 4 4 4 6 5 4 4 3 2 1 2 3 3 2 2 2 3 3 2 2 2 2 2 3 3 3 3 4 6 6 6 6 6 5 8 6 6 5 6 7 7
9 26 20 24 12 6 7 6 4 6 4 3 3 3 4 4 2 3 6 6 4 2 5 3 3 2 2 2 2 2 2 2 0 0 1 2 2 2 4 3 3 3 4 6 6 7 5 7 7 6 6 7 6 7
11 12 17 9 7 9 7 4 6 4 4 4 2 1 3 2 3 5 5 6 3 4 3 2 2 2 2 2 1 1 1 1 2 1 1 1 2 2 3 3 4 4 4 4 5 6 7 6 5 5 5 5 5 5
6 13 5 9 7 6 6 6 4 3 4 3 3 2 3 3 3 3 4 5 3 3 2 1 2 1 1 1 1 2 3 3 2 2 4 4 3 3 3 3 4 5 5 5 4 4 4 4 4 4 4 4 4 4
8 7 7 10 8 8 3 5 4 5 4 2 1 3 3 3 3 1 4 2 2 2 1 1 2 1 2 1 1 2 2 0 2 3 3 4 4 4 4 4 3 4 4 3 3 3 3 4 4 3 3 3 3 3
12 11 10 8 9 4 2 5 4 3 3 3 3 3 3 2 2 2 2 1 1 1 1 1 0 2 1 1 1 2 3 1 3 4 3 4 4 4 3 3 3 3 2 2 3 2 2 2 3 3 3 4 4 4
9 13 8 8 6 5 6 4 5 4 4 3 2 2 2 2 1 1 1 1 0 1 2 1 1 1 0 1 1 1 2 1 2 3 1 3 5 4 3 3 3 3 2 0 1 1 1 1 2 3 3 3 4 5
13 7 8 7 5 5 3 3 4 3 2 2 3 2 2 0 1 1 0 1 1 0 1 2 1 1 1 1 2 2 1 2 2 2 2 1 1 1 3 3 2 2 1 1 2 1 2 2 2 4 4 4 4 5
8 6 4 2 2 2 4 3 1 2 3 2 2 2 1 1 2 1 1 1 1 2 1 1 2 2 2 2 2 1 1 2 3 2 3 2 1 2 2 2 3 2 4 3 1 1 2 3 4 4 6 5 5 6
4 4 4 5 4 3 3 2 3 2 1 1 1 1 2 2 1 1 0 1 0 1 1 1 1 1 2 2 2 3 3 2 3 2 2 1 1 0 1 0 1 5 3 2 2 3 3 4 4 6 7 8 8 5
4 2 1 5 3 4 4 2 1 0 0 0 1 1 2 2 1 2 1 0 0 1 1 1 1 1 1 1 1 1 2 3 3 3 4 2 2 3 4 3 2 2 2 2 6 7 8 8 8 8 9 7 7 7
3 2 3 2 4 3 1 2 1 1 2 2 2 2 2 3 3 2 2 2 3 3 2 1 1 3 3 3 2 3 4 4 4 4 3 2 1 2 2 2 3 2 2 2 4 5 8 6 6 4 5 6 6 7
1 0 3 2 2 1 0 1 1 1 2 2 2 2 3 3 3 4 5 4 3 2 2 3 3 3 2 4 3 2 3 4 5 6 5 3 3 3 3 4 3 2 2 3 4 4 5 5 6 7 8 10 11 10
1 2 3 2 1 0 1 2 1 1 1 1 2 1 2 2 3 4 5 6 4 4 7 4 3 4 5 5 3 3 3 2 3 4 5 4 4 4 4 3 3 3 4 5 5 6 6 8 8 9 10 13 14 14
1 0 1 2 1 1 2 3 1 2 1 1 1 1 1 2 4 1 1 5 4 6 6 6 5 3 4 4 4 4 5 3 4 7 9 10 10 9 5 4 4 5 6 6 7 7 10 11 11 13 14 14 15 16
Wind_Direction
273 270 264 263 259 261 264 252 258 255 248 250 247 239 254 216 211 206 198 187 192 212 226 198 224 230 185 198 201 142 145 180 178 205 214 210 237 230 226 243 259 249 244 229 230 244 255 91 312 249 44 349 309 305
269 265 262 262 263 267 257 253 252 248 249 246 246 249 254 229 217 209 194 187 191 203 298 226 224 231 222 197 207 189 160 136 186 210 214 232 230 231 227 247 228 244 236 250 249 256 277 286 272 299 200 242 267 245
265 260 258 262 268 270 259 246 247 243 249 247 247 236 231 265 202 213 174 172 173 159 176 188 207 204 190 204 202 197 215 199 198 254 299 261 247 298 241 240 259 255 263 254 265 254 271 289 303 294 295 256 282 302
262 257 255 253 256 257 249 242 246 249 253 246 242 236 237 253 220 210 160 173 169 146 199 190 206 208 194 193 196 218 239 145 278 227 241 245 248 227 255 262 270 263 297 251 260 266 269 270 262 332 310 292 286 288
249 247 249 248 249 251 244 242 247 250 250 245 241 234 229 226 259 197 169 178 182 167 161 143 122 212 198 197 204 206 208 207 201 208 222 239 242 257 253 270 261 248 252 252 260 275 287 285 300 306 255 278 283 291
249 242 245 246 245 244 245 247 241 244 248 245 242 232 221 213 242 182 168 193 181 127 132 156 80 164 180 195 206 198 189 201 216 213 233 237 251 272 257 251 257 252 253 258 268 269 268 280 282 284 267 260 256 256
259 239 243 245 246 246 248 243 241 242 241 243 235 225 217 241 223 191 164 159 170 131 128 133 157 110 143 128 160 172 182 174 199 213 227 242 223 214 240 245 257 270 272 267 269 280 279 274 277 277 257 265 277 263
300 263 250 246 243 244 244 246 250 249 242 233 227 215 214 257 195 134 166 163 154 134 157 156 114 152 181 147 145 158 169 168 201 227 235 237 239 228 246 253 268 260 265 266 263 278 273 273 271 270 248 268 273 265
286 274 263 265 260 255 251 248 242 229 217 212 208 195 246 226 135 133 151 153 83 132 156 164 145 151 171 132 115 173 173 190 199 220 227 212 224 227 250 260 278 350 328 321 319 310 308 305 305 303 286 273 253 270
290 285 273 260 256 245 239 236 223 208 204 202 173 193 202 126 118 106 127 163 156 143 175 131 102 129 172 148 159 150 167 209 212 215 198 220 241 248 66 27 9 353 346 343 330 342 350 328 336 325 310 317 317 308
292 278 265 262 265 247 246 236 205 203 194 173 169 121 137 122 86 89 133 144 133 146 160 106 122 129 207 155 142 212 167 191 233 201 204 220 235 119 14 9 359 348 340 331 316 296 295 296 301 308 316 330 331 325
5 5 326 281 276 177 177 174 167 169 95 163 119 82 108 98 87 92 113 132 129 126 121 139 125 107 138 141 127 169 184 169 242 57 234 238 103 34 4 349 342 339 328 324 325 315 317 313 319 312 307 323 340 322
32 38 59 109 95 80 106 101 127 134 122 93 60 67 68 12 105 143 156 108 126 154 149 152 123 114 111 138 105 143 178 219 60 221 236 265 72 5 347 335 329 327 329 326 325 329 327 334 351 358 334 335 332 355
36 43 57 67 98 102 94 61 75 75 69 71 65 76 54 105 116 114 122 117 99 131 138 132 104 107 122 141 130 175 178 163 234 237 237 89 25 334 331 332 328 328 332 332 334 336 340 349 1 8 353 352 0 32
52 60 56 58 54 65 68 53 47 44 48 71 42 78 68 105 51 57 20 93 36 24 120 104 84 111 120 146 176 132 179 227 223 229 62 30 352 330 328 334 329 324 331 334 341 340 354 3 18 24 18 9 38 53
70 57 47 59 61 52 43 45 30 51 59 47 31 80 32 84 59 39 34 80 8 52 111 64 109 139 157 175 188 197 204 212 167 107 60 356 350 334 328 328 326 325 331 337 353 351 19 35 42 48 46 45 52 55
56 38 48 45 57 54 41 60 37 43 48 42 44 37 6 44 59 56 14 29 336 326 102 126 147 169 95 171 216 203 233 72 99 101 23 4 325 330 324 319 335 341 351 6 19 29 48 53 56 67 63 52 60 56
41 15 25 21 40 51 51 39 77 58 59 34 53 17 40 28 61 45 22 5 336 40 357 105 110 175 191 189 189 123 122 124 118 69 47 6 347 351 349 345 356 357 17 27 35 43 51 67 74 68 67 69 69 57
46 35 27 34 60 76 54 33 26 79 51 71 89 55 54 69 52 34 8 4 20 350 106 69 148 170 148 91 93 122 127 98 72 73 87 85 33 0 354 23 37 42 39 41 49 54 59 49 39 48 53 51 55 47
36 31 24 31 45 68 72 46 38 72 69 72 57 48 63 54 22 9 25 14 359 13 52 49 60 75 54 90 51 83 84 53 9 176 160 91 62 69 49 34 48 58 71 67 52 46 58 56 39 37 35 42 56 53
30 357 10 42 50 53 71 29 67 72 115 84 112 38 78 63 43 24 13 348 40 28 80 56 85 82 22 345 342 331 299 267 236 285 359 141 88 74 76 66 67 64 68 66 67 59 55 52 39 38 46 53 52 49
3 11 51 20 74 65 71 20 51 74 63 74 67 38 53 54 39 25 317 39 51 52 37 45 52 21 80 73 29 353 327 290 320 89 92 114 126 111 81 66 86 77 61 54 61 68 58 44 30 29 34 29 40 39
19 29 50 15 74 46 29 329 70 22 74 66 78 62 43 51 21 308 74 49 69 46 33 43 40 11 2 14 18 24 6 37 103 95 96 95 95 90 87 64 79 106 108 80 66 70 69 39 33 23 14 14 14 21
33 46 35 38 22 63 342 34 29 59 62 48 49 73 38 23 347 37 91 74 62 12 45 47 115 108 128 14 45 29 12 74 110 102 113 128 109 82 76 84 81 76 51 72 54 56 34 31 11 26 8 356 14 360
68 4 14 23 22 34 44 31 13 49 68 27 75 78 39 313 25 27 344 85 46 51 22 30 160 258 260 88 89 70 349 277 152 130 81 115 117 128 131 110 86 69 43 32 45 346 3 334 4 5 331 337 341 321
68 6 30 10 18 38 8 71 40 54 48 70 45 340 310 268 231 259 93 110 109 76 61 43 63 167 134 40 148 155 75 355 143 131 150 155 150 211 166 150 153 157 132 161 186 240 316 341 329 308 295 292 283 288
67 21 22 51 352 87 83 60 67 47 64 62 8 1 345 210 259 107 125 64 19 61 18 305 287 289 151 139 128 108 52 22 16 44 90 93 36 337 303 210 191 123 153 170 151 167 292 298 290 288 290 288 261 252
80 25 55 353 48 16 94 57 38 55 56 9 293 216 180 227 279 79 315 57 57 340 301 310 334 354 122 126 128 132 107 112 110 102 113 131 173 191 243 158 112 144 141 188 218 209 220 246 263 270 271 276 287 280
49 13 39 36 38 48 44 50 18 272 300 207 274 256 262 251 264 233 216 192 133 229 208 201 181 130 107 107 151 198 183 187 185 205 238 242 195 205 197 210 215 211 221 263 267 258 235 230 239 247 256 266 277 284
14 345 84 64 69 15 306 186 257 252 233 255 283 280 244 248 237 195 181 184 198 213 216 223 225 207 203 204 201 209 207 219 229 244 259 261 339 100 173 209 229 234 231 235 270 283 294 307 310 296 283 282 281 282
340 357 85 50 100 162 336 274 250 233 249 240 203 248 267 310 283 202 202 199 179 151 171 216 234 226 221 219 216 231 242 189 222 238 249 267 263 247 246 249 249 234 218 235 250 254 267 275 268 275 278 276 277 272
12 59 113 108 246 315 18 352 276 264 240 234 245 246 288 263 258 193 190 161 169 203 221 204 203 233 207 230 249 246 248 203 205 216 225 236 245 246 245 237 223 211 230 248 246 251 253 256 269 269 274 275 274 273
61 127 85 88 43 334 18 347 298 296 248 264 269 295 268 282 258 303 149 214 196 198 203 209 217 202 193 211 226 233 225 228 237 249 252 251 249 251 238 221 218 218 232 246 255 256 258 258 262 265 266 268 273 277